KA6ETS Weather Reports


time (UTC)temp
F
wind
direction
speed
knots
gust
knots
rain 1hr
in
rain 24hr
in
rain mn
in
humidity
%
barometer
mb
20260505192902 86 173 7.0 13.0 0.00 0.00 0.00 64 1003.6
20260505192357 86 152 7.8 14.8 0.00 0.00 0.00 64 1003.6
20260505191850 86 150 8.7 15.6 0.00 0.00 0.00 64 1003.6
20260505191344 86 186 7.8 15.6 0.00 0.00 0.00 64 1003.7
20260505190838 85 159 7.8 15.6 0.00 0.00 0.00 66 1003.8
20260505190332 85 165 7.8 15.6 0.00 0.00 0.00 66 1003.8
20260505185827 85 134 7.8 14.8 0.00 0.00 0.00 65 1003.9
20260505185320 85 153 7.0 14.8 0.00 0.00 0.00 66 1003.9
20260505184814 85 196 7.8 14.8 0.00 0.00 0.00 67 1003.9
20260505184308 84 176 7.8 14.8 0.00 0.00 0.00 66 1004.0
20260505183804 84 171 7.0 15.6 0.00 0.00 0.00 67 1004.1
20260505183256 84 126 7.0 15.6 0.00 0.00 0.00 67 1004.1
20260505182751 84 156 7.0 15.6 0.00 0.00 0.00 67 1003.9
20260505182504 84 150 7.0 15.6 0.00 0.00 0.00 66 1004.1
20260505182002 84 181 7.8 12.2 0.00 0.00 0.00 67 1004.1
20260505181231 83 152 7.0 13.9 0.00 0.00 0.00 68 1004.0
20260505180945 83 150 7.0 13.9 0.00 0.00 0.00 67 1004.1
20260505180220 83 133 7.8 13.9 0.00 0.00 0.00 67 1004.2
20260505175940 83 120 8.7 13.9 0.00 0.00 0.00 67 1004.1
20260505175434 83 179 7.8 14.8 0.00 0.00 0.00 67 1004.0
20260505174702 83 187 7.8 17.4 0.00 0.00 0.00 66 1004.2
20260505174422 83 152 7.8 17.4 0.00 0.00 0.00 67 1004.1
20260505173651 83 163 7.8 16.5 0.00 0.00 0.00 67 1004.0
20260505173408 83 206 7.8 16.5 0.00 0.00 0.00 67 1004.0
20260505172638 82 196 7.8 16.5 0.00 0.00 0.00 67 1004.0
20260505172132 82 213 7.8 13.0 0.00 0.00 0.00 68 1004.1
20260505171627 83 109 7.8 20.0 0.00 0.00 0.00 67 1004.2
20260505171120 83 156 8.7 20.0 0.00 0.00 0.00 67 1004.2
20260505171051 82 188 8.7 19.1 0.00 0.00 0.00 68 1004.3
20260505170109 82 127 7.8 19.1 0.00 0.00 0.00 70 1004.3
20260505165602 81 141 7.8 15.6 0.00 0.00 0.00 70 1004.2
20260505165317 80 165 7.8 15.6 0.00 0.00 0.00 71 1004.3
20260505164550 80 212 7.8 14.8 0.00 0.00 0.00 71 1004.4
20260505164045 80 184 7.8 16.5 0.00 0.00 0.00 71 1004.4
20260505163538 80 146 7.8 16.5 0.00 0.00 0.00 70 1004.1
20260505163255 81 166 7.0 15.6 0.00 0.00 0.00 70 1004.1
20260505162527 80 144 7.8 16.5 0.00 0.00 0.00 71 1004.2
20260505162021 80 109 7.8 15.6 0.00 0.00 0.00 71 1004.0
20260505161515 80 204 7.0 13.9 0.00 0.00 0.00 72 1004.1
20260505161008 80 134 7.8 14.8 0.00 0.00 0.00 72 1004.2
20260505160954 79 155 8.7 15.6 0.00 0.00 0.00 73 1004.1
20260505160230 79 207 8.7 16.5 0.00 0.00 0.00 73 1004.0
20260505153008 78 149 8.7 22.6 0.00 0.00 0.00 75 1004.1
20260505152509 77 198 9.6 22.6 0.00 0.00 0.00 76 1004.0
20260505152009 77 193 8.7 18.2 0.00 0.00 0.00 77 1004.0
20260505151509 76 148 7.8 15.6 0.00 0.00 0.00 78 1004.1
20260505151009 76 188 7.8 13.9 0.00 0.00 0.00 78 1004.1
20260505150509 75 148 7.0 17.4 0.00 0.00 0.00 79 1004.2
20260505140454 73 158 6.1 13.0 0.00 0.00 0.00 82 1004.1
20260505124952 72 152 7.0 13.0 0.00 0.00 0.00 83 1003.9
20260505124715 71 136 7.0 13.0 0.00 0.00 0.00 83 1003.7
20260505123952 71 144 6.1 13.0 0.00 0.00 0.00 83 1003.7
20260505123718 71 155 5.2 12.2 0.00 0.00 0.00 83 1003.5
20260505123211 71 184 5.2 13.9 0.00 0.00 0.00 83 1003.5
20260505122450 71 110 7.0 13.9 0.00 0.00 0.00 83 1003.3
20260505121949 71 145 7.8 13.9 0.00 0.00 0.00 83 1003.3
20260505121450 71 152 7.8 13.9 0.00 0.00 0.00 83 1003.4
20260505120951 71 126 7.8 13.9 0.00 0.00 0.00 83 1003.3
20260505120451 71 167 7.8 19.1 0.00 0.00 0.00 83 1003.3
20260505115950 71 137 8.7 19.1 0.00 0.00 0.00 83 1003.1
20260505115451 71 144 7.8 15.6 0.00 0.00 0.00 83 1003.1
20260505114947 71 130 7.8 15.6 0.00 0.00 0.00 83 1003.1
20260505114446 71 169 7.8 16.5 0.00 0.00 0.00 83 1003.2
20260505114431 71 136 7.8 16.5 0.00 0.00 0.00 83 1003.2
20260505113446 71 173 7.0 13.0 0.00 0.00 0.00 83 1003.1
20260505113210 71 198 7.0 13.0 0.00 0.00 0.00 83 1003.0
20260505112446 71 143 7.0 13.0 0.00 0.00 0.00 83 1003.2
20260505111945 71 179 6.1 11.3 0.00 0.00 0.00 83 1003.2
20260505111446 71 128 7.0 11.3 0.00 0.00 0.00 83 1003.3
20260505110947 71 160 7.8 14.8 0.00 0.00 0.00 83 1003.3
20260505110442 71 116 7.0 14.8 0.00 0.00 0.00 83 1003.2
20260505102204 71 105 7.8 16.5 0.00 0.00 0.00 82 1003.2
20260505101438 71 150 7.8 14.8 0.00 0.00 0.00 82 1003.2
20260505100936 71 180 7.8 15.6 0.00 0.00 0.00 82 1003.2
20260505100920 71 219 7.0 15.6 0.00 0.00 0.00 82 1003.3
20260505095936 71 145 7.8 14.8 0.00 0.00 0.00 82 1003.3
20260505095436 71 162 7.8 16.5 0.00 0.00 0.00 82 1003.3
20260505094936 71 164 7.0 16.5 0.00 0.00 0.00 82 1003.4
20260505094433 71 143 6.1 13.9 0.00 0.00 0.00 82 1003.4
20260505093935 71 184 7.8 16.5 0.00 0.00 0.00 82 1003.4
20260505093700 71 189 7.8 16.5 0.00 0.00 0.00 82 1003.6
20260505092932 71 126 7.0 14.8 0.00 0.00 0.00 82 1003.5
20260505092432 71 161 7.0 14.8 0.00 0.00 0.00 82 1003.6
20260505091932 71 157 7.8 15.6 0.00 0.00 0.00 82 1003.6
20260505091431 71 172 7.0 17.4 0.00 0.00 0.00 82 1003.6
20260505090931 71 164 7.8 17.4 0.00 0.00 0.00 82 1003.6
20260505090431 71 159 8.7 19.1 0.00 0.00 0.00 82 1003.4
20260505085924 71 148 8.7 19.1 0.00 0.00 0.00 82 1003.6
20260505085418 71 167 7.8 15.6 0.00 0.00 0.00 82 1003.4
20260505084911 71 167 7.8 14.8 0.00 0.00 0.00 82 1003.6
20260505084405 71 175 8.7 15.6 0.00 0.00 0.00 82 1003.5
20260505083900 71 155 8.7 21.7 0.00 0.00 0.00 82 1003.6
20260505083353 71 144 7.8 21.7 0.00 0.00 0.00 82 1003.6
20260505082847 71 161 8.7 14.8 0.00 0.00 0.00 82 1003.6
20260505082602 71 193 8.7 15.6 0.00 0.00 0.00 82 1003.6
20260505081835 71 180 7.8 15.6 0.00 0.00 0.00 82 1003.7
20260505081336 71 149 7.8 15.6 0.00 0.00 0.00 82 1003.8
20260505080836 71 161 7.8 15.6 0.00 0.00 0.00 82 1003.7
20260505080337 71 137 7.8 16.5 0.00 0.00 0.00 82 1003.8
20260505080058 71 130 8.7 16.5 0.00 0.00 0.00 82 1003.8
20260505075554 71 142 8.7 17.4 0.00 0.00 0.00 82 1003.9
20260505074833 71 155 8.7 17.4 0.00 0.00 0.00 82 1004.0
20260505074557 71 130 7.8 13.9 0.00 0.00 0.00 81 1004.1
20260505073833 71 130 7.8 15.6 0.00 0.00 0.00 81 1004.0
20260505073333 71 164 7.8 15.6 0.00 0.00 0.00 81 1004.3
20260505072830 71 145 7.8 13.9 0.00 0.00 0.00 81 1004.3
20260505072330 71 111 8.7 15.6 0.00 0.00 0.00 81 1004.3
20260505071831 71 155 8.7 15.6 0.00 0.00 0.00 81 1004.4
20260505071330 71 134 7.8 14.8 0.00 0.00 0.00 81 1004.5
20260505070829 71 153 7.8 14.8 0.00 0.00 0.00 80 1004.4
20260505070331 72 110 7.8 16.5 0.00 0.00 0.00 80 1004.6
20260505070046 72 149 7.8 16.5 0.00 0.00 0.00 80 1004.6
20260505065314 72 167 7.0 13.9 0.00 0.00 0.00 80 1004.7
20260505064809 72 143 7.0 14.8 0.00 0.00 0.00 80 1004.7
20260505064303 72 143 7.8 14.8 0.00 0.00 0.00 80 1004.8
20260505063757 72 156 7.8 18.2 0.00 0.00 0.00 79 1004.8
20260505063252 72 109 8.7 18.2 0.00 0.00 0.00 79 1004.8
20260505062746 72 158 8.7 14.8 0.00 0.00 0.00 79 1004.7
20260505062239 72 144 7.8 13.9 0.00 0.00 0.00 79 1004.8
20260505061734 72 145 7.8 13.9 0.00 0.00 0.00 79 1004.9
20260505061227 72 139 7.0 13.0 0.00 0.00 0.00 79 1004.8
20260505060723 72 176 7.0 16.5 0.00 0.00 0.00 78 1004.9
20260505060215 72 157 7.8 16.5 0.00 0.00 0.00 78 1004.8
20260505055710 72 142 7.0 13.0 0.00 0.00 0.00 78 1005.0
20260505055203 72 171 6.1 12.2 0.00 0.00 0.00 78 1004.8
20260505054657 72 143 7.0 12.2 0.00 0.00 0.00 77 1004.9
20260505054411 72 156 6.1 11.3 0.00 0.00 0.00 77 1005.0
20260505053645 72 144 6.1 13.9 0.00 0.00 0.00 77 1005.0
20260505053140 72 145 6.1 13.9 0.00 0.00 0.00 76 1005.1
20260505052633 72 148 6.1 12.2 0.00 0.00 0.00 76 1005.1
20260505052128 72 130 6.1 12.2 0.00 0.00 0.00 76 1005.1
20260505051621 73 167 7.0 12.2 0.00 0.00 0.00 76 1005.2
20260505051115 73 134 7.0 15.6 0.00 0.00 0.00 76 1005.3
20260505051046 73 149 7.0 15.6 0.00 0.00 0.00 75 1005.2
20260505050104 73 144 5.2 14.8 0.00 0.00 0.00 75 1005.2
20260505041535 74 152 4.3 13.0 0.00 0.00 0.00 72 1005.5
20260505041035 74 135 5.2 11.3 0.00 0.00 0.00 72 1005.6
20260505040535 74 124 6.1 12.2 0.00 0.00 0.00 72 1005.6
20260505040035 74 145 6.1 12.2 0.00 0.00 0.00 71 1005.5
20260505035535 74 112 6.1 11.3 0.00 0.00 0.00 71 1005.6
20260505035036 74 130 5.2 10.4 0.00 0.00 0.00 71 1005.4
20260505034537 74 125 6.1 14.8 0.00 0.00 0.00 71 1005.4
20260505034035 74 135 6.1 14.8 0.00 0.00 0.00 71 1005.3
20260505033536 74 144 6.1 11.3 0.00 0.00 0.00 70 1005.2
20260505033035 74 117 7.0 13.0 0.00 0.00 0.00 70 1005.4
20260505032536 74 119 6.1 13.0 0.00 0.00 0.00 70 1005.5
20260505032034 74 141 6.1 11.3 0.00 0.00 0.00 70 1005.6
20260505031531 75 169 6.1 11.3 0.00 0.00 0.00 70 1005.6
20260505031032 75 126 6.1 10.4 0.00 0.00 0.00 69 1005.6
20260505030531 75 175 5.2 10.4 0.00 0.00 0.00 69 1005.6
20260505030031 75 103 6.1 11.3 0.00 0.00 0.00 69 1005.6
20260505025532 75 130 6.1 11.3 0.00 0.00 0.00 69 1005.6
20260505025031 75 136 6.1 12.2 0.00 0.00 0.00 69 1005.5
20260505024531 75 173 6.1 12.2 0.00 0.00 0.00 69 1005.5
20260505024031 75 137 6.1 13.9 0.00 0.00 0.00 69 1005.6
20260505023531 75 151 5.2 13.9 0.00 0.00 0.00 69 1005.4
20260505023027 75 148 5.2 12.2 0.00 0.00 0.00 68 1004.9
20260505022529 75 156 6.1 12.2 0.00 0.00 0.00 68 1005.1
20260505022027 75 140 6.1 11.3 0.00 0.00 0.00 68 1005.1
20260505021527 75 126 6.1 10.4 0.00 0.00 0.00 68 1005.2
20260505021027 75 129 5.2 10.4 0.00 0.00 0.00 68 1005.1
20260505020527 75 137 4.3 8.7 0.00 0.00 0.00 68 1005.1
20260505020028 76 138 4.3 11.3 0.00 0.00 0.00 67 1005.2
20260505015527 76 146 5.2 11.3 0.00 0.00 0.00 67 1005.2
20260505015028 76 134 4.3 9.6 0.00 0.00 0.00 67 1005.3
20260505014523 76 148 5.2 10.4 0.00 0.00 0.00 67 1005.3
20260505014023 76 134 6.1 10.4 0.00 0.00 0.00 66 1005.3
20260505013524 76 113 5.2 11.3 0.00 0.00 0.00 66 1005.2
20260505013023 76 129 6.1 11.3 0.00 0.00 0.00 66 1005.2
20260505012523 76 159 6.1 10.4 0.00 0.00 0.00 66 1005.2
20260505012502 76 170 5.2 10.4 0.00 0.00 0.00 66 1005.1
20260505011523 76 142 5.2 12.2 0.00 0.00 0.00 65 1005.0
20260505011024 77 171 5.2 12.2 0.00 0.00 0.00 65 1005.1
20260505010748 77 162 7.0 15.6 0.00 0.00 0.00 65 1005.0
20260505010025 77 180 7.0 15.6 0.00 0.00 0.00 65 1005.1
20260505005524 77 130 7.0 12.2 0.00 0.00 0.00 64 1005.2
20260505005023 77 133 7.0 15.6 0.00 0.00 0.00 64 1005.1
20260505004524 77 125 7.8 18.2 0.00 0.00 0.00 63 1005.3
20260505004247 78 151 7.0 18.2 0.00 0.00 0.00 63 1005.3
20260505003523 78 132 7.0 14.8 0.00 0.00 0.00 63 1005.2
20260505003023 78 165 8.7 17.4 0.00 0.00 0.00 62 1005.3
20260505002524 78 116 8.7 17.4 0.00 0.00 0.00 61 1005.3
20260505002022 79 183 7.0 16.5 0.00 0.00 0.00 61 1005.4
20260505001519 79 172 6.1 13.9 0.00 0.00 0.00 61 1005.5
20260505001018 79 144 7.0 13.9 0.00 0.00 0.00 61 1005.6
20260505000517 79 115 8.7 16.5 0.00 0.00 0.00 61 1005.4
20260505000017 78 163 9.6 16.5 0.00 0.00 0.00 61 1005.5
20260504235515 79 149 7.8 14.8 0.00 0.00 0.00 61 1005.6
20260504235015 79 167 7.0 14.8 0.00 0.00 0.00 61 1005.6
20260504234515 79 144 8.7 14.8 0.00 0.00 0.00 61 1005.7
20260504234013 79 149 9.6 20.9 0.00 0.00 0.00 60 1005.7
20260504233514 79 120 8.7 20.9 0.00 0.00 0.00 60 1005.9
20260504233013 79 138 8.7 20.0 0.00 0.00 0.00 59 1005.7
20260504232511 80 128 9.6 19.1 0.00 0.00 0.00 59 1005.7
20260504232010 80 196 8.7 18.2 0.00 0.00 0.00 58 1005.7
20260504231511 80 162 9.6 17.4 0.00 0.00 0.00 58 1005.9
20260504231011 80 121 10.4 20.9 0.00 0.00 0.00 58 1006.0
20260504230512 80 152 10.4 20.9 0.00 0.00 0.00 58 1006.1
20260504230011 80 117 9.6 18.2 0.00 0.00 0.00 58 1006.0
20260504225509 81 169 8.7 16.5 0.00 0.00 0.00 56 1006.1
20260504225007 82 98 8.7 16.5 0.00 0.00 0.00 56 1006.1
20260504224507 82 185 8.7 17.4 0.00 0.00 0.00 56 1006.1
20260504224007 82 134 7.8 17.4 0.00 0.00 0.00 57 1006.0
20260504223507 82 151 7.8 17.4 0.00 0.00 0.00 56 1005.9
20260504223007 82 142 7.8 17.4 0.00 0.00 0.00 57 1006.0
20260504222731 81 133 8.7 15.6 0.00 0.00 0.00 57 1006.0
20260504222227 81 173 8.7 15.6 0.00 0.00 0.00 56 1006.1
20260504221505 82 151 8.7 17.4 0.00 0.00 0.00 56 1006.2
20260504221005 82 116 8.7 17.4 0.00 0.00 0.00 57 1006.2
20260504220505 82 168 8.7 16.5 0.00 0.00 0.00 55 1006.3
20260504220006 82 150 7.8 17.4 0.00 0.00 0.00 56 1006.4
20260504215504 81 147 9.6 17.4 0.00 0.00 0.00 56 1006.5
20260504215004 81 184 9.6 17.4 0.00 0.00 0.00 55 1006.5
20260504214504 82 192 9.6 17.4 0.00 0.00 0.00 55 1006.6
20260504214004 82 150 9.6 16.5 0.00 0.00 0.00 56 1006.7
20260504213458 82 146 8.7 16.5 0.00 0.00 0.00 55 1007.0
20260504212952 82 136 9.6 16.5 0.00 0.00 0.00 54 1007.0
20260504212447 82 151 9.6 17.4 0.00 0.00 0.00 55 1006.9
20260504211940 82 138 9.6 17.4 0.00 0.00 0.00 56 1007.1
20260504211434 81 105 10.4 19.1 0.00 0.00 0.00 55 1007.1
20260504210927 81 149 10.4 19.1 0.00 0.00 0.00 55 1007.2
20260504210422 82 121 9.6 19.1 0.00 0.00 0.00 54 1007.2
20260504210144 82 134 9.6 19.1 0.00 0.00 0.00 54 1007.4
20260504205631 82 150 8.7 19.1 0.00 0.00 0.00 53 1007.5
20260504204905 82 134 8.7 19.1 0.00 0.00 0.00 53 1007.6
20260504204357 82 143 8.7 16.5 0.00 0.00 0.00 55 1007.6
20260504203852 82 128 9.6 16.5 0.00 0.00 0.00 53 1007.6
20260504203346 81 123 9.6 17.4 0.00 0.00 0.00 54 1007.7
20260504202841 82 211 9.6 17.4 0.00 0.00 0.00 52 1007.9
20260504202335 82 140 8.7 17.4 0.00 0.00 0.00 55 1007.9
20260504201829 81 232 8.7 16.5 0.00 0.00 0.00 54 1008.1
20260504201322 81 131 9.6 16.5 0.00 0.00 0.00 52 1008.2
20260504200816 81 137 9.6 20.0 0.00 0.00 0.00 52 1008.3
20260504200311 81 148 10.4 20.0 0.00 0.00 0.00 52 1008.4
20260504195804 81 209 9.6 17.4 0.00 0.00 0.00 51 1008.5
20260504195258 82 132 8.7 15.6 0.00 0.00 0.00 51 1008.6
20260504194752 81 157 8.7 18.2 0.00 0.00 0.00 52 1008.6
20260504194248 81 138 8.7 18.2 0.00 0.00 0.00 50 1008.7
20260504193739 81 136 9.6 18.2 0.00 0.00 0.00 51 1008.6